Weather History for Spokane, WA

Change the Weather History Date:

Thursday, February 6, 2014

  Actual Average Record
Temperature  
Mean Temperature 5 °F 32 °F  
Max Temperature 14 °F 38 °F 54 °F (1886)
Min Temperature -5 °F 26 °F -18 °F (1883)
Degree Days  
Heating Degree Days 60 33  
Month to date heating degree days 318 200  
Since 1 July heating degree days 4276 4133  
Cooling Degree Days 0 0  
Month to date cooling degree days 0 0  
Year to date cooling degree days 0 0  
Moisture  
Dew Point -5 °F    
Average Humidity 60    
Maximum Humidity 72    
Minimum Humidity 48    
Precipitation  
Precipitation 0.02 in 0.05 in 0.90 in (1940)
Month to date precipitation 0.05 0.28  
Year to date precipitation 1.06 2.07  
Snow  
Snow 0.20 in 0.20 in 6.50 in (1939)
Month to date snowfall 1.6 1.7  
Since 1 July snowfall 15.5 35.2  
Snow Depth 4.00 in    
Sea Level Pressure  
Sea Level Pressure 30.18 in    
Wind  
Wind Speed 9 mph (NE)    
Max Wind Speed 15 mph    
Max Gust Speed 20 mph    
Visibility 9 miles    
Events Snow    
T = Trace of Precipitation, MM = Missing Value Source: NWS Daily Summary

Daily Weather History Graph

Daily Weather History Graph

Search for Another Location

Airport:

Trip Planner

Search our weather history database for the weather conditions in past years. The results will help you decide how hot, cold, wet, or windy it might be!

Date:

Astronomy

Feb. 06, 2014 Rise Set
Actual Time 7:09 AM PST 4:59 PM PST
Civil Twilight 6:37 AM PST 5:31 PM PST
Nautical Twilight 6:00 AM PST 6:08 PM PST
Astronomical Twilight 5:24 AM PST 6:44 PM PST
Moon 10:32 AM PST (2/6) 12:30 AM PST (2/6)
Length of Visible Light 10h 54m
Length of Day
9h 49m
Waxing Crescent, 50% of the Moon is Illuminated
Feb 6
Waxing Crescent
Feb 14
Full
Feb 22
Last Quarter
Mar 1
New
Mar 8
First Quarter

Hourly Weather History & Observations

Time (PST) Temp. Windchill Dew Point Humidity Pressure Visibility Wind Dir Wind Speed Gust Speed Precip Events Conditions
12:53 AM 1.9 °F -5.6 °F -11.0 °F 55% 30.47 in 10.0 mi NE 3.5 mph - N/A   Clear
1:53 AM -2.9 °F -16.5 °F -11.9 °F 65% 30.45 in 10.0 mi NE 6.9 mph - N/A   Clear
2:53 AM -0.9 °F -12.7 °F -11.0 °F 62% 30.43 in 10.0 mi ENE 5.8 mph - N/A   Clear
3:53 AM -2.9 °F -13.3 °F -11.0 °F 68% 30.42 in 10.0 mi ENE 4.6 mph - N/A   Clear
4:53 AM -0.9 °F -15.3 °F -9.9 °F 66% 30.40 in 10.0 mi ENE 8.1 mph - N/A   Clear
5:53 AM -4.0 °F -17.8 °F -11.0 °F 72% 30.39 in 10.0 mi ENE 6.9 mph - N/A   Partly Cloudy
6:53 AM -2.0 °F -10.1 °F -11.9 °F 63% 30.37 in 10.0 mi ENE 3.5 mph - N/A   Partly Cloudy
7:53 AM -0.9 °F -12.7 °F -11.9 °F 60% 30.37 in 10.0 mi NE 5.8 mph - N/A   Partly Cloudy
8:53 AM 1.9 °F -10.6 °F -9.0 °F 60% 30.35 in 10.0 mi ENE 6.9 mph - N/A   Partly Cloudy
9:53 AM 5.0 °F -10.0 °F -8.0 °F 55% 30.33 in 10.0 mi NE 10.4 mph - N/A   Partly Cloudy
10:53 AM 8.1 °F -7.0 °F -6.0 °F 53% 30.30 in 10.0 mi NE 11.5 mph - N/A   Scattered Clouds
11:53 AM 10.9 °F -4.7 °F -5.1 °F 49% 30.27 in 10.0 mi NE 13.8 mph - N/A   Scattered Clouds
12:53 PM 12.0 °F -2.7 °F -4.0 °F 49% 30.21 in 10.0 mi NE 12.7 mph - N/A   Mostly Cloudy
1:53 PM 12.9 °F -0.9 °F -4.0 °F 47% 30.17 in 10.0 mi NE 11.5 mph - N/A   Mostly Cloudy
2:53 PM 14.0 °F -0.2 °F -2.9 °F 47% 30.13 in 10.0 mi NE 12.7 mph - N/A   Mostly Cloudy
3:53 PM 14.0 °F 2.0 °F -2.0 °F 49% 30.10 in 10.0 mi NE 9.2 mph - N/A   Mostly Cloudy
4:53 PM 12.9 °F 0.7 °F -2.0 °F 51% 30.05 in 10.0 mi NE 9.2 mph - N/A   Mostly Cloudy
5:53 PM 12.9 °F 1.6 °F -2.0 °F 51% 30.01 in 10.0 mi NE 8.1 mph - N/A   Mostly Cloudy
6:53 PM 12.0 °F 0.5 °F -0.9 °F 56% 29.99 in 10.0 mi NE 8.1 mph - N/A   Overcast
7:53 PM 10.9 °F -1.8 °F -2.0 °F 56% 29.95 in 10.0 mi NNE 9.2 mph - N/A   Overcast
8:53 PM 10.9 °F -3.4 °F -0.9 °F 59% 29.91 in 10.0 mi NE 11.5 mph - N/A   Overcast
9:53 PM 10.9 °F -1.8 °F -0.9 °F 59% 29.89 in 10.0 mi NNE 9.2 mph - N/A   Overcast
10:32 PM 10.9 °F 0.2 °F -0.0 °F 61% 29.76 in 2.0 mi NNE 6.9 mph - 0.00 in Snow Light Snow
10:44 PM 10.9 °F 0.2 °F 1.9 °F 67% 29.75 in 1.0 mi NNE 6.9 mph - 0.00 in Snow Light Snow
10:53 PM 10.0 °F -1.9 °F 3.9 °F 76% 29.87 in 1.0 mi NE 8.1 mph - 0.01 in Snow Light Snow
11:53 PM 10.0 °F -2.9 °F 5.0 °F 80% 29.84 in 1.0 mi NE 9.2 mph - 0.01 in Snow Light Snow